QPF
0.02 0.01 0.01 0.02 0.02 0.02 0.03 0.04 0.06 0.06 0.03 0.02 0.01 0.02 0.02 0.02 0.02 0.02 0.02 0.04 0.04 0.05 0.04 0.04 0.03 0.03 0.03 0.02 0.02 0.02 0.03 0.03 0.03 0.02 0.02 0.02 0.02 0.02
0.03 0.02 0.02 0.02 0.02 0.03 0.03 0.04 0.05 0.07 0.05 0.03 0.02 0.02 0.03 0.03 0.03 0.03 0.03 0.04 0.06 0.07 0.06 0.06 0.04 0.04 0.03 0.03 0.02 0.02 0.02 0.02 0.02 0.02 0.02 0.02 0.02 0.02
0.03 0.03 0.02 0.03 0.04 0.04 0.04 0.05 0.06 0.09 0.10 0.06 0.05 0.05 0.05 0.05 0.05 0.05 0.04 0.05 0.05 0.06 0.06 0.05 0.05 0.05 0.04 0.03 0.03 0.03 0.03 0.02 0.02 0.02 0.02 0.01 0.01 0.01
0.03 0.03 0.03 0.04 0.04 0.04 0.05 0.05 0.06 0.08 0.09 0.08 0.06 0.06 0.06 0.05 0.05 0.05 0.05 0.05 0.04 0.05 0.05 0.05 0.05 0.04 0.04 0.03 0.03 0.03 0.03 0.03 0.02 0.02 0.02 0.02 0.02 0.02
0.04 0.04 0.04 0.04 0.04 0.03 0.03 0.04 0.04 0.05 0.06 0.06 0.06 0.05 0.06 0.06 0.06 0.06 0.06 0.06 0.06 0.05 0.05 0.04 0.04 0.04 0.03 0.03 0.03 0.02 0.02 0.02 0.02 0.02 0.02 0.02 0.02 0.02
0.05 0.05 0.05 0.05 0.04 0.04 0.04 0.04 0.04 0.05 0.06 0.07 0.07 0.06 0.07 0.07 0.07 0.07 0.07 0.06 0.05 0.04 0.04 0.04 0.04 0.04 0.04 0.04 0.03 0.03 0.02 0.02 0.03 0.03 0.02 0.03 0.02 0.02
0.05 0.05 0.05 0.06 0.06 0.07 0.06 0.05 0.05 0.07 0.07 0.08 0.07 0.06 0.06 0.07 0.07 0.07 0.06 0.05 0.04 0.04 0.04 0.03 0.04 0.04 0.05 0.05 0.04 0.03 0.03 0.02 0.03 0.03 0.03 0.03 0.03 0.03
0.07 0.06 0.05 0.05 0.06 0.06 0.06 0.06 0.07 0.08 0.09 0.09 0.08 0.08 0.07 0.06 0.06 0.06 0.06 0.06 0.05 0.04 0.04 0.04 0.04 0.04 0.04 0.04 0.04 0.03 0.02 0.02 0.02 0.02 0.02 0.03 0.03 0.03
0.06 0.08 0.08 0.07 0.07 0.05 0.05 0.06 0.06 0.07 0.07 0.08 0.08 0.07 0.06 0.05 0.06 0.07 0.07 0.06 0.05 0.04 0.04 0.05 0.04 0.04 0.03 0.03 0.03 0.02 0.02 0.02 0.02 0.02 0.02 0.03 0.03 0.04
0.06 0.07 0.08 0.08 0.07 0.06 0.05 0.05 0.04 0.04 0.05 0.06 0.06 0.06 0.05 0.05 0.05 0.06 0.07 0.07 0.06 0.05 0.04 0.05 0.04 0.03 0.03 0.03 0.03 0.03 0.02 0.02 0.02 0.02 0.03 0.03 0.03 0.04
0.06 0.07 0.08 0.07 0.07 0.07 0.07 0.06 0.05 0.04 0.05 0.05 0.05 0.05 0.05 0.05 0.05 0.06 0.07 0.07 0.06 0.05 0.03 0.03 0.03 0.03 0.03 0.03 0.03 0.03 0.03 0.03 0.02 0.02 0.02 0.03 0.04 0.04
0.07 0.08 0.09 0.08 0.07 0.07 0.07 0.07 0.07 0.06 0.05 0.05 0.05 0.05 0.04 0.04 0.05 0.05 0.05 0.06 0.06 0.05 0.03 0.03 0.03 0.03 0.04 0.04 0.03 0.03 0.03 0.03 0.02 0.02 0.02 0.02 0.03 0.04
0.08 0.09 0.09 0.09 0.09 0.08 0.08 0.08 0.08 0.07 0.06 0.05 0.05 0.06 0.06 0.05 0.05 0.05 0.05 0.06 0.06 0.05 0.03 0.03 0.04 0.05 0.05 0.05 0.04 0.03 0.03 0.03 0.02 0.02 0.02 0.02 0.03 0.03
0.09 0.09 0.09 0.09 0.09 0.09 0.08 0.08 0.08 0.07 0.07 0.08 0.07 0.07 0.06 0.06 0.06 0.06 0.06 0.06 0.05 0.05 0.04 0.04 0.05 0.05 0.06 0.06 0.05 0.04 0.03 0.03 0.02 0.02 0.02 0.02 0.02 0.03
0.10 0.09 0.08 0.08 0.08 0.07 0.07 0.08 0.07 0.06 0.07 0.07 0.06 0.05 0.05 0.06 0.06 0.06 0.06 0.06 0.06 0.06 0.06 0.05 0.05 0.05 0.06 0.06 0.05 0.04 0.03 0.03 0.02 0.02 0.02 0.02 0.02 0.02
0.10 0.08 0.07 0.06 0.06 0.06 0.06 0.06 0.06 0.07 0.07 0.07 0.07 0.06 0.05 0.06 0.06 0.06 0.06 0.06 0.06 0.06 0.05 0.05 0.05 0.05 0.05 0.05 0.04 0.04 0.03 0.02 0.02 0.02 0.02 0.02 0.02 0.02
0.08 0.06 0.05 0.04 0.04 0.04 0.04 0.04 0.04 0.05 0.05 0.05 0.06 0.07 0.07 0.08 0.08 0.08 0.07 0.06 0.06 0.05 0.05 0.04 0.04 0.05 0.05 0.05 0.04 0.03 0.03 0.03 0.02 0.02 0.02 0.02 0.02 0.02
0.06 0.05 0.05 0.04 0.03 0.03 0.03 0.03 0.03 0.03 0.04 0.05 0.05 0.06 0.06 0.06 0.07 0.07 0.06 0.06 0.06 0.06 0.05 0.05 0.04 0.04 0.05 0.05 0.05 0.04 0.03 0.03 0.03 0.03 0.03 0.03 0.02 0.02
0.06 0.05 0.05 0.05 0.04 0.03 0.02 0.02 0.03 0.03 0.04 0.05 0.06 0.06 0.05 0.04 0.04 0.05 0.05 0.04 0.04 0.04 0.05 0.04 0.04 0.04 0.04 0.04 0.03 0.03 0.03 0.03 0.03 0.04 0.03 0.02 0.02 0.02
0.07 0.06 0.06 0.05 0.04 0.03 0.03 0.04 0.04 0.04 0.05 0.05 0.05 0.04 0.04 0.04 0.04 0.04 0.04 0.03 0.03 0.04 0.04 0.04 0.04 0.04 0.04 0.03 0.03 0.03 0.03 0.03 0.03 0.03 0.03 0.02 0.02 0.02
0.06 0.06 0.06 0.06 0.04 0.04 0.04 0.05 0.05 0.06 0.05 0.05 0.04 0.04 0.04 0.05 0.05 0.05 0.05 0.04 0.04 0.04 0.05 0.04 0.04 0.04 0.04 0.04 0.04 0.03 0.03 0.02 0.02 0.03 0.03 0.04 0.04 0.03
0.05 0.06 0.05 0.06 0.06 0.05 0.05 0.05 0.05 0.05 0.05 0.05 0.04 0.04 0.05 0.05 0.05 0.04 0.04 0.04 0.04 0.05 0.05 0.05 0.05 0.05 0.05 0.05 0.05 0.04 0.03 0.03 0.03 0.03 0.03 0.04 0.05 0.05
0.05 0.05 0.04 0.04 0.05 0.06 0.06 0.06 0.05 0.05 0.04 0.04 0.04 0.04 0.04 0.04 0.04 0.04 0.04 0.04 0.04 0.05 0.05 0.05 0.05 0.04 0.04 0.04 0.04 0.04 0.03 0.03 0.03 0.03 0.03 0.03 0.02 0.02
MSLP
998.45 998.62 998.75 998.83 998.81 998.68 998.46 998.17 997.86 997.58 997.38 997.29 997.32 997.48 997.74 998.07 998.43 998.79 999.14 999.45 999.73 999.99 1000.26 1000.54 1000.85 1001.20 1001.59 1002.03 1002.51 1003.02 1003.55 1004.11 1004.68 1005.26 1005.83 1006.39 1006.93 1007.42
997.45 997.57 997.68 997.75 997.74 997.63 997.45 997.21 996.96 996.74 996.58 996.54 996.60 996.78 997.04 997.37 997.72 998.07 998.41 998.71 998.99 999.26 999.54 999.84 1000.17 1000.55 1000.98 1001.46 1001.98 1002.52 1003.10 1003.68 1004.29 1004.89 1005.49 1006.08 1006.64 1007.15
996.44 996.50 996.58 996.63 996.63 996.56 996.43 996.26 996.09 995.94 995.86 995.86 995.96 996.16 996.42 996.74 997.07 997.40 997.72 998.01 998.30 998.58 998.88 999.21 999.58 1000.01 1000.47 1000.98 1001.53 1002.11 1002.70 1003.31 1003.93 1004.56 1005.18 1005.79 1006.38 1006.93
995.46 995.46 995.48 995.51 995.52 995.49 995.42 995.33 995.24 995.18 995.16 995.22 995.36 995.57 995.83 996.13 996.44 996.75 997.06 997.36 997.66 997.97 998.31 998.70 999.12 999.59 1000.10 1000.65 1001.22 1001.81 1002.42 1003.03 1003.66 1004.29 1004.92 1005.55 1006.16 1006.74
994.56 994.48 994.45 994.45 994.46 994.46 994.44 994.42 994.41 994.42 994.48 994.59 994.76 994.98 995.24 995.52 995.82 996.13 996.44 996.76 997.10 997.47 997.87 998.33 998.82 999.35 999.91 1000.49 1001.08 1001.68 1002.27 1002.88 1003.48 1004.10 1004.73 1005.36 1005.98 1006.57
993.78 993.62 993.54 993.50 993.50 993.51 993.54 993.57 993.62 993.70 993.82 993.97 994.16 994.39 994.65 994.94 995.24 995.55 995.89 996.26 996.66 997.10 997.60 998.13 998.71 999.30 999.92 1000.53 1001.13 1001.71 1002.29 1002.86 1003.43 1004.01 1004.61 1005.22 1005.82 1006.42
993.17 992.94 992.79 992.72 992.69 992.71 992.76 992.83 992.93 993.06 993.22 993.40 993.62 993.86 994.13 994.42 994.74 995.08 995.46 995.89 996.38 996.91 997.50 998.13 998.78 999.45 1000.11 1000.74 1001.34 1001.90 1002.44 1002.96 1003.48 1004.00 1004.55 1005.11 1005.69 1006.26
992.73 992.44 992.25 992.14 992.09 992.11 992.17 992.27 992.40 992.56 992.75 992.96 993.19 993.45 993.74 994.05 994.39 994.78 995.22 995.72 996.28 996.91 997.59 998.30 999.03 999.75 1000.44 1001.08 1001.67 1002.20 1002.69 1003.15 1003.60 1004.06 1004.54 1005.04 1005.56 1006.08
992.47 992.14 991.92 991.78 991.73 991.74 991.81 991.93 992.09 992.27 992.48 992.72 992.98 993.25 993.56 993.90 994.27 994.71 995.20 995.77 996.41 997.10 997.85 998.63 999.40 1000.15 1000.86 1001.49 1002.06 1002.55 1002.99 1003.39 1003.77 1004.16 1004.56 1004.99 1005.44 1005.90
992.37 992.04 991.81 991.67 991.62 991.64 991.73 991.86 992.05 992.26 992.50 992.76 993.04 993.34 993.67 994.04 994.45 994.92 995.46 996.06 996.74 997.48 998.26 999.06 999.85 1000.60 1001.29 1001.91 1002.44 1002.89 1003.28 1003.63 1003.95 1004.27 1004.61 1004.97 1005.35 1005.75
992.40 992.10 991.89 991.78 991.75 991.80 991.91 992.09 992.30 992.54 992.81 993.10 993.41 993.74 994.10 994.49 994.93 995.42 995.98 996.60 997.28 998.02 998.79 999.57 1000.33 1001.05 1001.70 1002.28 1002.78 1003.19 1003.54 1003.84 1004.12 1004.40 1004.68 1004.98 1005.30 1005.63
992.50 992.26 992.11 992.06 992.08 992.18 992.35 992.57 992.82 993.11 993.42 993.75 994.09 994.45 994.83 995.24 995.69 996.18 996.72 997.32 997.98 998.67 999.39 1000.11 1000.81 1001.47 1002.07 1002.60 1003.05 1003.43 1003.75 1004.03 1004.28 1004.52 1004.77 1005.02 1005.29 1005.56
992.63 992.49 992.44 992.47 992.57 992.75 992.98 993.26 993.57 993.90 994.26 994.62 995.00 995.38 995.78 996.20 996.65 997.13 997.64 998.19 998.78 999.40 1000.03 1000.66 1001.28 1001.86 1002.39 1002.86 1003.27 1003.62 1003.92 1004.18 1004.42 1004.64 1004.86 1005.08 1005.30 1005.52
992.76 992.75 992.81 992.95 993.16 993.43 993.74 994.08 994.45 994.84 995.24 995.64 996.05 996.46 996.87 997.30 997.73 998.18 998.64 999.13 999.64 1000.17 1000.70 1001.23 1001.74 1002.23 1002.68 1003.09 1003.46 1003.77 1004.05 1004.30 1004.53 1004.74 1004.93 1005.12 1005.30 1005.47
992.87 993.01 993.21 993.48 993.80 994.16 994.55 994.97 995.40 995.83 996.27 996.71 997.15 997.57 998.00 998.41 998.83 999.24 999.66 1000.08 1000.51 1000.94 1001.37 1001.80 1002.21 1002.61 1002.98 1003.33 1003.64 1003.92 1004.17 1004.39 1004.60 1004.78 1004.94 1005.09 1005.22 1005.33
992.98 993.27 993.62 994.02 994.45 994.90 995.37 995.85 996.33 996.80 997.28 997.74 998.19 998.63 999.06 999.46 999.86 1000.24 1000.62 1000.98 1001.33 1001.68 1002.02 1002.36 1002.68 1003.00 1003.29 1003.57 1003.82 1004.05 1004.26 1004.44 1004.60 1004.73 1004.84 1004.93 1004.99 1005.03
993.13 993.57 994.06 994.57 995.10 995.63 996.17 996.69 997.20 997.70 998.19 998.66 999.12 999.56 999.99 1000.39 1000.77 1001.13 1001.47 1001.78 1002.08 1002.37 1002.64 1002.90 1003.15 1003.39 1003.61 1003.82 1004.01 1004.17 1004.31 1004.42 1004.51 1004.56 1004.59 1004.59 1004.57 1004.53
993.36 993.94 994.54 995.15 995.76 996.35 996.91 997.46 997.99 998.50 998.98 999.46 999.92 1000.35 1000.77 1001.16 1001.53 1001.87 1002.18 1002.47 1002.74 1002.98 1003.20 1003.40 1003.59 1003.76 1003.92 1004.05 1004.16 1004.24 1004.29 1004.31 1004.29 1004.24 1004.17 1004.06 1003.95 1003.82
993.76 994.43 995.12 995.79 996.44 997.06 997.64 998.19 998.71 999.21 999.68 1000.14 1000.58 1001.01 1001.41 1001.79 1002.15 1002.47 1002.77 1003.03 1003.27 1003.48 1003.67 1003.83 1003.97 1004.08 1004.17 1004.22 1004.25 1004.23 1004.18 1004.09 1003.95 1003.79 1003.59 1003.38 1003.16 1002.95
994.36 995.09 995.82 996.51 997.17 997.78 998.35 998.88 999.38 999.85 1000.30 1000.74 1001.16 1001.56 1001.94 1002.30 1002.64 1002.94 1003.22 1003.47 1003.69 1003.87 1004.03 1004.15 1004.24 1004.30 1004.33 1004.30 1004.24 1004.13 1003.96 1003.75 1003.50 1003.22 1002.91 1002.59 1002.29 1002.00
995.18 995.93 996.65 997.33 997.96 998.54 999.07 999.56 1000.02 1000.46 1000.88 1001.28 1001.67 1002.04 1002.39 1002.72 1003.03 1003.31 1003.56 1003.78 1003.97 1004.13 1004.25 1004.34 1004.38 1004.39 1004.35 1004.25 1004.10 1003.90 1003.64 1003.32 1002.97 1002.58 1002.18 1001.78 1001.41 1001.07
996.23 996.94 997.61 998.23 998.80 999.32 999.80 1000.24 1000.65 1001.05 1001.42 1001.79 1002.14 1002.47 1002.78 1003.08 1003.34 1003.58 1003.79 1003.97 1004.12 1004.24 1004.32 1004.36 1004.36 1004.31 1004.21 1004.05 1003.82 1003.54 1003.20 1002.81 1002.37 1001.92 1001.45 1001.01 1000.60 1000.24
997.46 998.08 998.66 999.19 999.67 1000.11 1000.52 1000.90 1001.26 1001.61 1001.94 1002.26 1002.57 1002.86 1003.12 1003.36 1003.57 1003.76 1003.91 1004.03 1004.13 1004.19 1004.22 1004.21 1004.15 1004.05 1003.89 1003.67 1003.39 1003.05 1002.65 1002.21 1001.73 1001.24 1000.75 1000.29 999.88 999.53
Thickness
5589 5588 5586 5585 5584 5582 5580 5578 5576 5578 5584 5585 5582 5584 5582 5581 5581 5580 5579 5578 5576 5574 5572 5569 5567 5564 5560 5557 5554 5550 5546 5541 5537 5532 5527 5522 5518 5513
5581 5580 5579 5577 5576 5574 5572 5571 5570 5570 5575 5579 5576 5575 5574 5573 5572 5571 5571 5571 5569 5567 5565 5562 5559 5556 5553 5550 5547 5542 5537 5533 5528 5524 5519 5514 5509 5504
5574 5572 5572 5570 5568 5567 5565 5563 5562 5562 5565 5570 5567 5565 5563 5563 5563 5562 5562 5561 5560 5559 5557 5554 5552 5549 5546 5542 5538 5534 5529 5524 5520 5515 5510 5505 5500 5494
5567 5565 5565 5563 5561 5560 5557 5556 5556 5556 5556 5559 5558 5555 5554 5555 5553 5552 5552 5551 5550 5550 5547 5545 5543 5540 5538 5534 5530 5525 5520 5515 5510 5506 5501 5496 5491 5485
5559 5558 5558 5556 5555 5554 5552 5550 5549 5549 5548 5548 5550 5547 5545 5544 5543 5542 5542 5541 5540 5539 5537 5535 5533 5532 5529 5525 5521 5516 5511 5506 5501 5496 5491 5486 5481 5476
5552 5551 5551 5550 5550 5548 5546 5544 5542 5540 5539 5539 5539 5538 5536 5534 5532 5531 5531 5530 5529 5528 5526 5525 5524 5521 5519 5515 5511 5506 5501 5496 5491 5486 5481 5477 5472 5467
5545 5545 5544 5544 5543 5542 5541 5538 5535 5533 5532 5531 5531 5529 5528 5524 5524 5523 5522 5520 5518 5516 5515 5514 5512 5510 5507 5504 5500 5496 5491 5486 5482 5477 5472 5467 5463 5458
5536 5536 5536 5536 5535 5535 5534 5532 5531 5528 5526 5525 5524 5523 5523 5520 5518 5514 5511 5508 5508 5507 5503 5503 5500 5498 5496 5493 5489 5485 5480 5475 5471 5467 5462 5457 5453 5449
5526 5526 5528 5528 5528 5527 5525 5524 5523 5522 5521 5521 5518 5517 5515 5514 5510 5506 5503 5502 5502 5498 5492 5491 5488 5487 5485 5482 5478 5474 5470 5465 5461 5457 5452 5448 5443 5439
5517 5517 5518 5519 5519 5519 5518 5515 5514 5513 5513 5512 5512 5511 5508 5506 5503 5501 5497 5491 5486 5484 5482 5480 5477 5474 5473 5469 5467 5463 5459 5455 5450 5446 5442 5438 5433 5428
5507 5509 5509 5511 5513 5511 5509 5507 5505 5504 5502 5502 5502 5500 5498 5496 5493 5488 5483 5479 5476 5472 5469 5468 5465 5461 5458 5456 5453 5451 5447 5443 5439 5436 5432 5427 5423 5418
5498 5499 5500 5502 5504 5503 5500 5498 5496 5495 5491 5489 5488 5487 5485 5484 5482 5479 5476 5472 5467 5462 5459 5456 5452 5448 5445 5443 5440 5437 5434 5431 5428 5424 5420 5416 5411 5406
5487 5489 5490 5492 5493 5491 5489 5488 5488 5484 5480 5478 5475 5473 5471 5470 5468 5466 5465 5464 5459 5455 5451 5445 5440 5435 5432 5429 5427 5426 5423 5419 5416 5412 5408 5404 5400 5395
5477 5478 5479 5480 5481 5479 5478 5478 5476 5472 5469 5466 5464 5462 5460 5458 5455 5454 5452 5450 5449 5446 5441 5436 5430 5426 5421 5417 5414 5413 5410 5407 5404 5400 5396 5392 5388 5384
5467 5469 5469 5468 5468 5466 5466 5465 5463 5460 5458 5456 5454 5451 5449 5446 5443 5440 5438 5436 5433 5430 5427 5424 5420 5415 5411 5407 5403 5400 5397 5396 5393 5389 5385 5382 5378 5374
5456 5457 5457 5456 5456 5454 5452 5451 5450 5449 5448 5446 5442 5439 5436 5433 5431 5429 5426 5424 5419 5414 5412 5410 5407 5404 5399 5396 5392 5389 5387 5384 5383 5379 5375 5372 5368 5364
5445 5444 5443 5442 5441 5440 5438 5437 5437 5437 5436 5434 5431 5428 5425 5422 5419 5417 5414 5412 5408 5403 5399 5396 5393 5391 5389 5386 5382 5380 5377 5374 5372 5369 5365 5362 5359 5356
5434 5433 5431 5430 5429 5427 5426 5425 5425 5424 5424 5422 5419 5417 5414 5411 5408 5405 5402 5400 5397 5393 5388 5384 5380 5378 5376 5374 5373 5370 5368 5365 5362 5358 5355 5352 5350 5348
5423 5421 5420 5419 5418 5416 5415 5414 5413 5413 5411 5410 5408 5406 5403 5400 5397 5394 5391 5388 5385 5381 5377 5373 5370 5367 5365 5365 5362 5361 5358 5356 5353 5350 5347 5344 5342 5341
5411 5410 5410 5409 5408 5406 5405 5403 5402 5401 5400 5399 5397 5394 5393 5390 5387 5383 5380 5378 5375 5370 5366 5363 5360 5358 5357 5355 5352 5350 5350 5347 5344 5342 5339 5336 5334 5333
5399 5399 5399 5398 5397 5396 5395 5393 5392 5391 5390 5389 5387 5385 5383 5380 5377 5373 5370 5369 5365 5360 5357 5354 5350 5348 5345 5343 5340 5340 5340 5339 5338 5335 5332 5328 5325 5324
5387 5387 5387 5387 5387 5386 5386 5384 5383 5382 5380 5379 5377 5375 5373 5370 5367 5364 5361 5357 5354 5351 5347 5343 5340 5337 5335 5333 5331 5329 5329 5329 5329 5328 5326 5324 5320 5319
5377 5377 5377 5378 5378 5377 5377 5376 5375 5373 5371 5369 5367 5365 5363 5360 5357 5354 5351 5348 5344 5341 5337 5332 5329 5327 5324 5322 5320 5319 5318 5318 5317 5317 5318 5318 5317 5316